TimeCDT,TemperatureF,Dew PointF,Humidity,Sea Level PressureIn,VisibilityMPH,Wind Direction,Wind SpeedMPH,Gust SpeedMPH,PrecipitationIn,Events,Conditions,WindDirDegrees,DateUTC
12:15 AM,45.9,43.5,92,29.72,10.0,SW,3.5,-,N/A,Rain,Light Rain,220,2013-10-07 05:15:00
12:35 AM,45.9,43.7,92,29.73,10.0,SW,5.8,-,N/A,,Light Drizzle,230,2013-10-07 05:35:00
12:55 AM,45.9,43.9,93,29.73,10.0,WSW,6.9,-,N/A,,Overcast,240,2013-10-07 05:55:00
1:15 AM,46.0,43.9,92,29.73,10.0,SW,5.8,-,N/A,,Overcast,230,2013-10-07 06:15:00
1:35 AM,45.9,43.7,92,29.73,10.0,SSW,5.8,-,N/A,,Overcast,210,2013-10-07 06:35:00
1:55 AM,45.0,43.3,94,29.74,10.0,SW,6.9,-,N/A,,Scattered Clouds,220,2013-10-07 06:55:00
2:15 AM,44.2,43.2,96,29.73,10.0,SW,6.9,-,N/A,,Scattered Clouds,220,2013-10-07 07:15:00
2:35 AM,44.6,43.5,96,29.73,10.0,SW,5.8,-,N/A,,Mostly Cloudy,220,2013-10-07 07:35:00
2:55 AM,45.0,43.9,96,29.73,10.0,SW,9.2,-,N/A,,Overcast,220,2013-10-07 07:55:00
3:15 AM,45.5,43.9,94,29.73,10.0,SW,6.9,-,N/A,,Overcast,220,2013-10-07 08:15:00
3:35 AM,45.7,44.2,95,29.73,7.0,WSW,9.2,-,N/A,Rain,Rain,240,2013-10-07 08:35:00
3:55 AM,45.5,44.6,97,29.73,5.0,WSW,9.2,-,0.02,Rain,Light Rain,250,2013-10-07 08:55:00
4:15 AM,45.7,45.5,99,29.74,7.0,WSW,10.4,-,N/A,,Light Drizzle,250,2013-10-07 09:15:00
4:35 AM,46.0,45.7,99,29.74,7.0,WSW,6.9,-,N/A,Rain,Rain,250,2013-10-07 09:35:00
4:55 AM,46.8,46.6,99,29.75,4.0,West,5.8,-,N/A,,Overcast,260,2013-10-07 09:55:00
5:15 AM,47.3,47.3,100,29.75,10.0,West,8.1,-,N/A,,Overcast,270,2013-10-07 10:15:00
5:35 AM,48.2,47.8,99,29.76,5.0,WNW,6.9,-,N/A,,Drizzle,290,2013-10-07 10:35:00
5:55 AM,48.2,47.3,97,29.77,3.0,WNW,6.9,-,N/A,,Light Drizzle,290,2013-10-07 10:55:00
6:15 AM,47.8,47.1,97,29.78,7.0,WNW,10.4,16.1,N/A,,Overcast,290,2013-10-07 11:15:00
6:35 AM,47.8,45.0,90,29.79,10.0,NW,10.4,17.3,N/A,,Overcast,310,2013-10-07 11:35:00
6:55 AM,46.9,43.0,86,29.80,10.0,NW,8.1,18.4,N/A,,Scattered Clouds,310,2013-10-07 11:55:00
7:15 AM,46.0,43.0,89,29.82,10.0,WNW,5.8,-,N/A,,Clear,300,2013-10-07 12:15:00
7:35 AM,45.9,43.5,92,29.82,10.0,WNW,5.8,-,N/A,,Clear,290,2013-10-07 12:35:00
7:55 AM,45.9,43.3,91,29.84,10.0,West,6.9,-,N/A,,Clear,280,2013-10-07 12:55:00
8:15 AM,46.4,43.0,88,29.84,10.0,WNW,5.8,-,N/A,,Clear,290,2013-10-07 13:15:00
8:35 AM,47.3,43.0,85,29.85,10.0,West,9.2,-,N/A,,Clear,280,2013-10-07 13:35:00
8:55 AM,48.4,43.2,82,29.86,10.0,West,9.2,-,N/A,,Clear,280,2013-10-07 13:55:00
9:15 AM,49.3,43.3,80,29.87,10.0,West,6.9,-,N/A,,Clear,280,2013-10-07 14:15:00
9:35 AM,50.0,43.7,79,29.88,10.0,West,8.1,-,N/A,,Scattered Clouds,270,2013-10-07 14:35:00
9:55 AM,50.7,43.9,77,29.89,10.0,West,11.5,-,N/A,,Mostly Cloudy,260,2013-10-07 14:55:00
10:15 AM,49.8,43.3,78,29.90,10.0,West,10.4,16.1,N/A,,Mostly Cloudy,260,2013-10-07 15:15:00
10:35 AM,50.7,43.7,77,29.91,10.0,WSW,15.0,-,N/A,,Overcast,250,2013-10-07 15:35:00
10:55 AM,50.9,43.2,75,29.92,10.0,WSW,10.4,17.3,N/A,,Mostly Cloudy,250,2013-10-07 15:55:00
11:15 AM,52.5,43.7,72,29.92,10.0,WSW,8.1,-,N/A,,Scattered Clouds,250,2013-10-07 16:15:00
11:35 AM,54.0,43.3,67,29.92,10.0,West,8.1,-,N/A,,Clear,260,2013-10-07 16:35:00
11:55 AM,54.7,41.4,61,29.92,10.0,West,8.1,-,N/A,,Clear,260,2013-10-07 16:55:00
12:15 PM,55.9,41.5,58,29.93,10.0,West,9.2,-,N/A,,Clear,260,2013-10-07 17:15:00
12:35 PM,57.0,41.4,56,29.93,10.0,WSW,11.5,17.3,N/A,,Clear,240,2013-10-07 17:35:00
12:55 PM,58.6,40.1,50,29.93,10.0,WSW,12.7,-,N/A,,Clear,250,2013-10-07 17:55:00
1:15 PM,59.4,39.9,49,29.92,10.0,West,6.9,-,N/A,,Scattered Clouds,280,2013-10-07 18:15:00
1:35 PM,61.0,41.0,48,29.92,10.0,WSW,10.4,18.4,N/A,,Scattered Clouds,240,2013-10-07 18:35:00
1:55 PM,61.9,35.4,37,29.92,10.0,WNW,10.4,19.6,N/A,,Mostly Cloudy,290,2013-10-07 18:55:00
2:15 PM,62.8,33.8,34,29.92,10.0,West,9.2,17.3,N/A,,Scattered Clouds,280,2013-10-07 19:15:00
2:35 PM,63.3,33.6,33,29.93,10.0,West,10.4,17.3,N/A,,Scattered Clouds,280,2013-10-07 19:35:00
2:55 PM,63.1,33.8,33,29.94,10.0,West,9.2,-,N/A,,Scattered Clouds,260,2013-10-07 19:55:00
3:15 PM,63.1,34.0,34,29.94,10.0,WNW,6.9,-,N/A,,Clear,290,2013-10-07 20:15:00
3:35 PM,63.3,34.7,34,29.95,10.0,WNW,9.2,-,N/A,,Clear,290,2013-10-07 20:35:00
3:55 PM,63.5,34.7,34,29.95,10.0,WSW,12.7,17.3,N/A,,Clear,250,2013-10-07 20:55:00
4:15 PM,63.5,34.9,34,29.95,10.0,WSW,11.5,-,N/A,,Clear,250,2013-10-07 21:15:00
4:35 PM,63.5,33.6,33,29.96,10.0,West,8.1,-,N/A,,Clear,270,2013-10-07 21:35:00
4:55 PM,63.1,32.7,32,29.96,10.0,West,5.8,-,N/A,,Clear,280,2013-10-07 21:55:00
5:15 PM,62.6,32.9,33,29.97,10.0,West,5.8,-,N/A,,Clear,280,2013-10-07 22:15:00
5:35 PM,61.9,34.9,36,29.97,10.0,WNW,4.6,-,N/A,,Clear,290,2013-10-07 22:35:00
5:55 PM,61.0,35.8,39,29.98,10.0,NW,3.5,-,N/A,,Clear,310,2013-10-07 22:55:00
6:15 PM,59.7,35.6,41,29.98,10.0,WNW,3.5,-,N/A,,Clear,300,2013-10-07 23:15:00
6:35 PM,58.1,37.0,45,30.00,10.0,Calm,Calm,-,N/A,,Clear,0,2013-10-07 23:35:00
6:55 PM,55.8,37.4,50,30.00,10.0,Calm,Calm,-,N/A,,Clear,0,2013-10-07 23:55:00
7:15 PM,54.5,37.6,53,30.01,10.0,Calm,Calm,-,N/A,,Clear,0,2013-10-08 00:15:00
7:35 PM,55.0,38.1,53,30.02,10.0,WNW,3.5,-,N/A,,Clear,290,2013-10-08 00:35:00
7:55 PM,49.6,40.8,72,30.03,10.0,Calm,Calm,-,N/A,,Clear,0,2013-10-08 00:55:00
8:15 PM,51.4,39.9,65,30.03,10.0,Calm,Calm,-,N/A,,Clear,0,2013-10-08 01:15:00
8:35 PM,49.8,41.0,72,30.04,10.0,Calm,Calm,-,N/A,,Clear,0,2013-10-08 01:35:00
8:55 PM,50.2,40.5,69,30.05,10.0,Calm,Calm,-,N/A,,Clear,0,2013-10-08 01:55:00
9:15 PM,48.9,41.7,76,30.06,10.0,Calm,Calm,-,N/A,,Clear,0,2013-10-08 02:15:00
9:35 PM,47.3,43.0,85,30.07,10.0,Calm,Calm,-,N/A,,Clear,0,2013-10-08 02:35:00
9:55 PM,48.0,42.3,80,30.07,10.0,Calm,Calm,-,N/A,,Clear,0,2013-10-08 02:55:00
10:15 PM,49.1,40.8,73,30.08,10.0,Calm,Calm,-,N/A,,Clear,0,2013-10-08 03:15:00
10:35 PM,49.3,40.3,71,30.07,10.0,Calm,Calm,-,N/A,,Clear,0,2013-10-08 03:35:00
10:55 PM,47.3,41.7,81,30.08,10.0,Calm,Calm,-,N/A,,Clear,0,2013-10-08 03:55:00
11:15 PM,44.1,41.0,89,30.09,10.0,Calm,Calm,-,N/A,,Clear,0,2013-10-08 04:15:00
11:35 PM,45.3,42.3,89,30.09,10.0,Calm,Calm,-,N/A,,Clear,0,2013-10-08 04:35:00
11:55 PM,45.7,41.9,87,30.09,10.0,Calm,Calm,-,N/A,,Clear,0,2013-10-08 04:55:00